Regional Weather Roundup
Issued by NWS Cleveland, OH

Home | Current Version | Previous Version | Graphics & Text | Print | Product List | Glossary On
Versions: 1 2 3 4 5 6 7 8 9 10 11 12 13 14 15 16 17 18 19 20 21 22 23 24 25 26 27 28 29 30 31 32 33 34 35 36 37 38 39 40 41 42 43 44 45 46 47 48 49 50
000
ASUS41 KCLE 251612
RWRCLE
OHIO REGIONAL WEATHER ROUNDUP
NATIONAL WEATHER SERVICE WILMINGTON, OH
1200 PM EDT TUE JUL 25 2017

NOTE: "FAIR" INDICATES FEW OR NO CLOUDS BELOW 12,000 FEET WITH NO
SIGNIFICANT WEATHER AND/OR OBSTRUCTIONS TO VISIBILITY.

OHZ001>008-015>018-024>027-034-035-043-044-251700-
   NORTHWEST OHIO

CITY           SKY/WX    TMP DP  RH WIND       PRES   REMARKS
DEFIANCE       FAIR     N/A N/A N/A E8        30.25S
FINDLAY        FAIR      73  55  53 VRB6      30.23R
TOLEDO EXPRESS FAIR      74  54  49 E8        30.23S
TOLEDO EXEC    FAIR      74  57  55 NE8       30.25R
LIMA           FAIR      71  58  63 E12       30.24R
$$

OHZ009>014-019>023-028>033-038-089-251700-
   NORTHEAST OHIO

CITY           SKY/WX    TMP DP  RH WIND       PRES   REMARKS
CLE-HOPKINS    CLOUDY    72  60  66 N12       30.23S
CLE-LAKEFRONT  PTSUNNY   70  58  65 N9        30.21R
CUY CO. ARPT   CLOUDY    70  59  68 E9        30.22S
LORAIN-ELYRIA  CLOUDY    69  55  60 NE6       30.23S
ASHTABULA      CLOUDY    69  60  73 VRB6      30.22R
AKRON-CANTON   CLOUDY    70  56  61 NW8       30.21S
WOOSTER        CLOUDY    69  57  65 VRB6      30.22F
MANSFIELD      CLOUDY    69  57  65 N10       30.23S
YOUNGSTOWN     CLOUDY    67  58  72 N8        30.21R
$$

OHZ042-051>053-060>062-070>072-077>081-251700-
  SOUTHWEST OHIO

CITY           SKY/WX    TMP DP  RH WIND       PRES   REMARKS
CINC-COVINGTON FAIR      75  60  59 NE10      30.19F
CINC-LUNKEN    FAIR      75  60  59 NE8       30.20S
HAMILTON       FAIR      75  60  59 VRB3      30.21F
DAYTON         FAIR      71  56  58 N9        30.24R
WRIGHT-PAT AFB FAIR      72  58  61 E7        30.22S
DAYTON GENERAL FAIR      72  58  61 MISG      30.21S
WILMINGTON     FAIR      70  60  70 VRB5      30.21S
$$

OHZ036-037-039>041-045>050-054>059-063>069-073>076-082>088-251700-
  CENTRAL AND SOUTHEAST OHIO

CITY           SKY/WX    TMP DP  RH WIND       PRES   REMARKS
COLUMBUS       CLOUDY    70  59  68 N7        30.21F
OSU AIRPORT    CLOUDY    69  59  70 N7        30.22F
BOLTON FIELD   CLOUDY    70  57  64 N3        30.22F
RICKENBACK AFB CLOUDY    68  58  69 E5        30.21F
NEWARK         CLOUDY    69  56  62 VRB3      30.21S
MARION         FAIR      69  57  65 E6        30.24R
LANCASTER      CLOUDY    69  59  70 N6        30.22F
ZANESVILLE     CLOUDY    68  57  68 NE5       30.22R
NEW PHILLY     CLOUDY    70  60  70 N5        30.21S
$$




USA.gov is the U.S. government's official web portal to all federal, state and local government web resources and services.